TimePST,TemperatureF,Dew PointF,Humidity,Sea Level PressureIn,VisibilityMPH,Wind Direction,Wind SpeedMPH,Gust SpeedMPH,PrecipitationIn,Events,Conditions,WindDirDegrees,DateUTC
12:08 AM,44.6,42.8,93,30.33,10.0,South,12.7,-,N/A,,Overcast,180,2013-01-30 08:08:00
12:58 AM,44.4,43.2,95,30.35,10.0,South,10.4,-,0.01,,Overcast,170,2013-01-30 08:58:00
1:08 AM,44.6,42.8,93,30.34,10.0,South,9.2,-,N/A,,Overcast,170,2013-01-30 09:08:00
1:28 AM,44.6,42.8,93,30.34,10.0,South,9.2,-,N/A,,Overcast,170,2013-01-30 09:28:00
1:58 AM,44.8,43.7,96,30.36,10.0,South,9.2,-,N/A,,Overcast,170,2013-01-30 09:58:00
2:58 AM,45.5,44.1,95,30.35,10.0,South,5.8,-,N/A,,Overcast,170,2013-01-30 10:58:00
3:18 AM,46.4,44.6,93,30.34,10.0,South,5.8,-,N/A,,Overcast,170,2013-01-30 11:18:00
3:58 AM,45.7,44.4,95,30.36,10.0,South,5.8,-,N/A,,Overcast,170,2013-01-30 11:58:00
4:58 AM,46.0,44.6,95,30.36,10.0,South,8.1,-,N/A,,Overcast,170,2013-01-30 12:58:00
5:34 AM,46.4,44.6,93,30.33,10.0,South,11.5,-,N/A,,Light Drizzle,170,2013-01-30 13:34:00
5:58 AM,46.0,45.0,96,30.37,10.0,South,6.9,-,0.01,,Light Drizzle,170,2013-01-30 13:58:00
6:08 AM,46.4,44.6,93,30.34,10.0,South,8.1,-,N/A,Rain,Light Rain,170,2013-01-30 14:08:00
6:13 AM,46.4,44.6,93,30.35,8.0,South,6.9,-,N/A,Rain,Light Rain,170,2013-01-30 14:13:00
6:43 AM,46.4,46.4,100,30.35,10.0,South,8.1,-,N/A,Rain,Light Rain,170,2013-01-30 14:43:00
6:58 AM,45.9,45.5,99,30.37,10.0,South,9.2,-,0.08,,Light Drizzle,170,2013-01-30 14:58:00
7:43 AM,46.4,44.6,93,30.35,10.0,South,8.1,-,N/A,,Light Drizzle,170,2013-01-30 15:43:00
7:53 AM,46.4,44.6,93,30.36,10.0,South,6.9,-,N/A,,Light Drizzle,170,2013-01-30 15:53:00
7:58 AM,45.5,45.3,99,30.38,10.0,South,9.2,-,0.03,,Light Drizzle,170,2013-01-30 15:58:00
8:08 AM,46.4,44.6,93,30.36,10.0,South,9.2,-,N/A,,Light Drizzle,170,2013-01-30 16:08:00
8:58 AM,45.7,45.5,99,30.39,10.0,South,6.9,-,0.05,,Light Drizzle,170,2013-01-30 16:58:00
9:03 AM,46.4,44.6,93,30.37,10.0,South,8.1,-,N/A,,Light Drizzle,170,2013-01-30 17:03:00
9:08 AM,46.4,46.4,100,30.37,10.0,South,8.1,-,N/A,,Overcast,170,2013-01-30 17:08:00
9:10 AM,46.4,46.4,100,30.37,10.0,South,8.1,-,N/A,,Light Drizzle,170,2013-01-30 17:10:00
9:25 AM,46.4,46.4,100,30.37,9.0,South,8.1,-,N/A,,Light Drizzle,170,2013-01-30 17:25:00
9:45 AM,46.4,46.4,100,30.37,10.0,South,8.1,-,N/A,,Light Drizzle,170,2013-01-30 17:45:00
9:58 AM,46.0,45.9,99,30.40,9.0,South,8.1,-,0.05,Rain,Light Rain,170,2013-01-30 17:58:00
10:43 AM,46.4,46.4,100,30.38,10.0,South,6.9,-,N/A,,Light Drizzle,170,2013-01-30 18:43:00
10:58 AM,46.6,46.4,99,30.40,10.0,South,9.2,-,0.05,,Light Drizzle,170,2013-01-30 18:58:00
11:13 AM,46.4,46.4,100,30.39,10.0,South,8.1,-,N/A,,Overcast,170,2013-01-30 19:13:00
11:53 AM,46.4,46.4,100,30.38,10.0,South,6.9,-,N/A,,Overcast,170,2013-01-30 19:53:00
11:58 AM,47.1,46.9,99,30.40,10.0,South,5.8,-,0.01,,Overcast,170,2013-01-30 19:58:00
12:23 PM,46.4,46.4,100,30.38,10.0,South,6.9,-,N/A,,Overcast,170,2013-01-30 20:23:00
12:28 PM,48.2,46.4,93,30.38,10.0,South,5.8,-,N/A,,Overcast,170,2013-01-30 20:28:00
12:43 PM,48.2,46.4,93,30.38,10.0,South,5.8,-,N/A,,Overcast,170,2013-01-30 20:43:00
12:48 PM,48.2,46.4,93,30.38,10.0,South,5.8,-,N/A,,Overcast,170,2013-01-30 20:48:00
12:58 PM,47.7,47.3,99,30.40,10.0,South,6.9,-,N/A,,Overcast,170,2013-01-30 20:58:00
1:58 PM,48.4,47.8,98,30.39,10.0,South,6.9,-,N/A,,Overcast,170,2013-01-30 21:58:00
2:53 PM,48.2,48.2,100,30.36,10.0,SSE,5.8,-,N/A,,Overcast,160,2013-01-30 22:53:00
2:58 PM,48.7,47.8,97,30.38,10.0,SSE,8.1,-,0.01,,Overcast,160,2013-01-30 22:58:00
3:03 PM,48.2,48.2,100,30.36,10.0,SSE,5.8,-,N/A,,Overcast,160,2013-01-30 23:03:00
3:38 PM,48.2,48.2,100,30.37,10.0,South,6.9,-,N/A,,Overcast,170,2013-01-30 23:38:00
3:48 PM,48.2,48.2,100,30.37,10.0,South,5.8,-,N/A,,Overcast,170,2013-01-30 23:48:00
3:53 PM,48.2,48.2,100,30.37,10.0,South,5.8,-,N/A,,Overcast,170,2013-01-30 23:53:00
3:58 PM,48.7,47.5,95,30.39,10.0,South,3.5,-,N/A,,Overcast,170,2013-01-30 23:58:00
4:03 PM,48.2,48.2,100,30.37,10.0,South,3.5,-,N/A,,Overcast,170,2013-01-31 00:03:00
4:08 PM,48.2,48.2,100,30.36,10.0,South,4.6,-,N/A,,Overcast,170,2013-01-31 00:08:00
4:58 PM,48.6,47.1,95,30.38,10.0,South,5.8,-,N/A,,Overcast,170,2013-01-31 00:58:00
5:03 PM,48.2,46.4,93,30.37,10.0,South,5.8,-,N/A,,Overcast,170,2013-01-31 01:03:00
5:08 PM,48.2,46.4,93,30.37,10.0,South,4.6,-,N/A,,Overcast,170,2013-01-31 01:08:00
5:23 PM,48.2,48.2,100,30.36,10.0,Variable,2.3,-,N/A,,Overcast,0,2013-01-31 01:23:00
5:58 PM,47.8,47.3,98,30.39,10.0,SE,4.6,-,N/A,,Overcast,130,2013-01-31 01:58:00
6:58 PM,47.3,46.9,99,30.38,10.0,SE,4.6,-,N/A,,Overcast,130,2013-01-31 02:58:00
7:43 PM,48.2,46.4,93,30.36,10.0,SSE,5.8,-,N/A,,Overcast,150,2013-01-31 03:43:00
7:58 PM,47.3,46.6,97,30.39,10.0,SSE,4.6,-,N/A,,Overcast,150,2013-01-31 03:58:00
8:58 PM,47.1,46.4,97,30.39,10.0,SSE,3.5,-,N/A,,Overcast,150,2013-01-31 04:58:00
9:58 PM,46.8,46.2,98,30.39,10.0,SSE,4.6,-,N/A,,Overcast,150,2013-01-31 05:58:00
10:03 PM,46.4,46.4,100,30.37,10.0,SSE,3.5,-,N/A,,Overcast,150,2013-01-31 06:03:00
10:13 PM,46.4,46.4,100,30.37,10.0,SSE,4.6,-,N/A,,Overcast,150,2013-01-31 06:13:00
10:58 PM,46.8,46.2,98,30.39,10.0,SSE,4.6,-,N/A,,Overcast,150,2013-01-31 06:58:00
11:58 PM,46.9,46.2,97,30.40,10.0,SSE,3.5,-,N/A,,Overcast,150,2013-01-31 07:58:00